KE4PKT Weather Reports


Display with metric or nautical units.
time (UTC)temp
F
wind
direction
speed
MPH
gust
MPH
rain 1hr
in
rain 24hr
in
rain mn
in
humidity
%
barometer
mb
20260505090045 58 0 2.0 5.0 0.00 0.18 0.00 74 1009.2
20260505084544 59 0 0.0 4.0 0.00 0.18 0.00 74 1009.1
20260505083041 60 167 1.0 6.0 0.00 0.18 0.00 73 1008.9
20260505081539 60 0 0.0 5.0 0.00 0.18 0.00 72 1008.9
20260505080038 61 0 2.0 5.0 0.00 0.18 0.00 71 1008.9
20260505074544 61 204 2.0 9.0 0.00 0.18 0.00 70 1008.8
20260505073047 61 178 3.0 8.0 0.00 0.18 0.00 71 1008.7
20260505071553 61 189 2.0 7.0 0.00 0.18 0.00 71 1008.7
20260505070042 61 191 1.0 7.0 0.00 0.18 0.00 71 1008.9
20260505064536 61 183 2.0 10.0 0.00 0.18 0.00 71 1008.8
20260505063058 61 183 1.0 8.0 0.00 0.18 0.00 71 1009.0
20260505061606 62 169 1.0 7.0 0.00 0.18 0.00 71 1008.8
20260505060044 62 192 1.0 5.0 0.00 0.18 0.00 71 1008.9
20260505054544 63 193 1.0 5.0 0.00 0.18 0.00 70 1009.1
20260505053046 63 0 1.0 6.0 0.00 0.18 0.00 69 1009.2
20260505051605 64 199 1.0 5.0 0.00 0.18 0.00 68 1009.3
20260505041540 64 198 1.0 9.0 0.00 0.18 0.00 68 1008.8
20260505040046 64 0 1.0 6.0 0.00 0.18 0.00 68 1008.9
20260505034541 64 175 3.0 8.0 0.00 0.18 0.18 68 1008.7
20260505033042 63 177 2.0 7.0 0.00 0.18 0.18 69 1008.5
20260505031541 63 171 1.0 8.0 0.00 0.18 0.18 70 1008.6
20260505030038 63 0 1.0 5.0 0.00 0.18 0.18 70 1008.2
20260505024539 63 0 0.0 3.0 0.00 0.18 0.18 69 1008.0
20260505023036 64 197 0.0 4.0 0.00 0.18 0.18 68 1007.9
20260505021544 64 0 0.0 3.0 0.00 0.18 0.18 67 1007.8
20260505020038 64 0 0.0 3.0 0.00 0.18 0.18 67 1007.6
20260505014541 65 0 0.0 3.0 0.00 0.18 0.18 66 1007.6
20260505013039 66 0 0.0 2.0 0.00 0.18 0.18 65 1007.7
20260505011544 67 191 0.0 2.0 0.00 0.18 0.18 65 1007.5
20260505010053 68 191 1.0 3.0 0.00 0.18 0.18 63 1007.5
20260505004541 69 0 0.0 4.0 0.00 0.18 0.18 60 1007.5
20260505003041 70 0 0.0 3.0 0.00 0.18 0.18 59 1007.5
20260505001540 71 206 0.0 5.0 0.00 0.18 0.18 58 1007.7
20260505000044 72 213 3.0 9.0 0.00 0.18 0.18 57 1007.9
20260504234536 72 223 3.0 10.0 0.00 0.18 0.18 56 1008.1
20260504233052 74 225 5.0 12.0 0.00 0.18 0.18 55 1008.2
20260504231545 74 173 3.0 9.0 0.00 0.18 0.18 58 1008.2
20260504230052 75 209 3.0 9.0 0.00 0.18 0.18 56 1008.5
20260504224538 75 243 3.0 9.0 0.00 0.18 0.18 55 1008.6
20260504223038 76 234 5.0 11.0 0.00 0.18 0.18 55 1008.6
20260504221543 76 245 6.0 13.0 0.00 0.18 0.18 51 1008.7
20260504220044 77 241 5.0 11.0 0.00 0.18 0.18 52 1008.7
20260504214537 76 217 4.0 15.0 0.00 0.18 0.18 55 1008.8
20260504213041 77 250 6.0 16.0 0.00 0.18 0.18 52 1008.7
20260504211541 77 243 9.0 17.0 0.00 0.18 0.18 51 1008.6
20260504210043 78 246 8.0 15.0 0.00 0.18 0.18 51 1008.6
20260504204548 78 238 7.0 15.0 0.00 0.18 0.18 52 1008.8
20260504203100 78 269 5.0 12.0 0.00 0.18 0.18 54 1008.8
20260504201540 77 279 4.0 16.0 0.00 0.18 0.18 57 1008.9